Weather History for Spokane Fairchild, WA

Change the Weather History Date:

Sunday, February 3, 2013

  Actual Average Record
Temperature  
Mean Temperature 29 °F -  
Max Temperature 32 °F 35 °F 53 °F (2005)
Min Temperature 26 °F 23 °F 10 °F (2014)
Degree Days  
Heating Degree Days 36    
Moisture  
Dew Point 31 °F    
Average Humidity 100    
Maximum Humidity 100    
Minimum Humidity 95    
Precipitation  
Precipitation 0.00 in - - ()
Snow  
Snow 0.00 in - - ()
Snow Depth 1.00 in    
Sea Level Pressure  
Sea Level Pressure 30.20 in    
Wind  
Wind Speed 1 mph (SSW)    
Max Wind Speed 6 mph    
Max Gust Speed -    
Visibility 1 miles    
Events Fog , Rain    
Averages and records for this station are not official NWS values.
T = Trace of Precipitation, MM = Missing Value Source: NWS Daily Summary

Daily Weather History Graph

Daily Weather History Graph

Search for Another Location

Airport:

Trip Planner

Search our weather history database for the weather conditions in past years. The results will help you decide how hot, cold, wet, or windy it might be!

Date:

Astronomy

Feb. 03, 2013 Rise Set
Actual Time 7:14 AM PST 4:55 PM PST
Civil Twilight 6:41 AM PST 5:28 PM PST
Nautical Twilight 6:04 AM PST 6:05 PM PST
Astronomical Twilight 5:28 AM PST 6:41 PM PST
Moon 12:48 AM PST (2/3) 10:33 AM PST (2/3)
Length of Visible Light 10h 47m
Length of Day
9h 41m
Waning Gibbous, 47% of the Moon is Illuminated
Feb 3
Waning Gibbous
Feb 9
New
Feb 17
First Quarter
Feb 25
Full
Mar 4
Last Quarter

Hourly Weather History & Observations

Time (PST) Temp. Windchill Dew Point Humidity Pressure Visibility Wind Dir Wind Speed Gust Speed Precip Events Conditions
12:58 AM 26.6 °F - 26.6 °F 100% 30.27 in 0.5 mi Calm Calm - N/A Fog Light Freezing Fog
1:58 AM 26.6 °F - 26.6 °F 100% 30.27 in 0.5 mi Calm Calm - N/A Fog Light Freezing Fog
1:59 AM - - - N/A% 30.19 in 0.8 mi Calm Calm - N/A Rain Light Freezing Rain
2:58 AM 26.8 °F - 26.6 °F 99% 30.27 in 0.5 mi Calm Calm - N/A Fog Light Freezing Fog
3:47 AM 26.6 °F - 26.6 °F 100% 30.25 in 0.8 mi Calm Calm - N/A   Mist
3:58 AM 26.1 °F - 26.6 °F 100% 30.26 in 1.2 mi Calm Calm - N/A   Mist
4:09 AM 26.6 °F - 26.6 °F 100% 30.25 in 2.0 mi Calm Calm - N/A   Overcast
4:21 AM 26.6 °F - 26.6 °F 100% 30.25 in 3.0 mi Calm Calm - N/A   Overcast
4:34 AM 26.6 °F - 26.6 °F 100% 30.25 in 2.0 mi Calm Calm - N/A   Overcast
4:58 AM 26.6 °F - 26.6 °F 100% 30.23 in 2.5 mi Calm Calm - N/A   Overcast
5:34 AM 26.6 °F - 26.6 °F 100% 30.24 in 10.0 mi Calm Calm - N/A   Overcast
5:58 AM 27.9 °F - 26.6 °F 95% 30.23 in 10.0 mi Calm Calm - N/A   Overcast
6:21 AM 28.4 °F - 28.4 °F 100% 30.25 in 2.5 mi Calm Calm - N/A   Overcast
6:28 AM 28.4 °F - 28.4 °F 100% 30.24 in 0.8 mi Calm Calm - N/A   Mist
6:45 AM 28.4 °F - 28.4 °F 100% 30.24 in 0.2 mi Calm Calm - N/A Fog Light Freezing Fog
6:55 AM 28.8 °F - 28.8 °F 100% 30.23 in 0.2 mi Calm Calm - N/A Fog Light Freezing Fog
7:55 AM 29.7 °F - 29.7 °F 100% 30.24 in 0.1 mi Calm Calm - N/A Fog Light Freezing Fog
8:55 AM 30.2 °F - 30.2 °F 100% 30.25 in 0.1 mi Calm Calm - N/A Fog Light Freezing Fog
9:55 AM 31.5 °F 26.8 °F 31.5 °F 100% 30.25 in 0.1 mi SSE 4.6 mph - N/A Fog Fog
10:22 AM 32.0 °F 27.5 °F 32.0 °F 100% 30.25 in 0.5 mi South 4.6 mph - N/A Fog Fog
10:55 AM 32.0 °F 28.7 °F 32.0 °F 100% 30.26 in 0.5 mi SSE 3.5 mph - N/A Fog Fog
11:14 AM 32.0 °F 28.7 °F 32.0 °F 100% 30.25 in 1.5 mi SE 3.5 mph - N/A   Overcast
11:25 AM 32.0 °F 27.5 °F 32.0 °F 100% 30.25 in 1.0 mi South 4.6 mph - N/A   Overcast
11:43 AM 32.0 °F 28.7 °F 32.0 °F 100% 30.23 in 0.8 mi South 3.5 mph - N/A   Mist
11:55 AM 32.5 °F - 32.5 °F 100% 30.23 in 1.0 mi Calm Calm - N/A   Mist
12:48 PM 32.0 °F 26.4 °F 32.0 °F 100% 30.23 in 2.0 mi South 5.8 mph - N/A   Overcast
12:55 PM 32.4 °F - 32.4 °F 100% 30.22 in 2.0 mi Calm Calm - N/A   Overcast
1:11 PM 32.0 °F 26.4 °F 32.0 °F 100% 30.22 in 1.5 mi South 5.8 mph - N/A   Overcast
1:30 PM 32.0 °F 28.7 °F 32.0 °F 100% 30.22 in 2.0 mi SSW 3.5 mph - N/A   Overcast
1:55 PM 32.0 °F 27.5 °F 32.0 °F 100% 30.21 in 1.0 mi South 4.6 mph - N/A   Overcast
2:01 PM 32.0 °F 26.4 °F 32.0 °F 100% 30.12 in 0.8 mi South 5.8 mph - N/A   Mist
2:06 PM 32.0 °F 28.7 °F 32.0 °F 100% 30.12 in 1.2 mi South 3.5 mph - N/A   Overcast
2:11 PM 32.0 °F 28.7 °F 32.0 °F 100% 30.12 in 2.5 mi South 3.5 mph - N/A   Overcast
2:21 PM 32.0 °F 28.7 °F 32.0 °F 100% 30.12 in 3.0 mi South 3.5 mph - N/A   Overcast
2:31 PM 32.0 °F - 32.0 °F 100% 30.13 in 2.5 mi South 1.2 mph - N/A   Overcast
2:41 PM 32.0 °F - 32.0 °F 100% 30.14 in 1.8 mi West 2.3 mph - N/A   Overcast
2:46 PM 32.0 °F - 32.0 °F 100% 30.14 in 1.5 mi WNW 2.3 mph - N/A   Overcast
2:53 PM 32.0 °F - 32.0 °F 100% 30.14 in 1.2 mi WNW 2.3 mph - N/A   Overcast
2:58 PM 32.0 °F - 32.0 °F 100% 30.22 in 1.2 mi WNW 2.3 mph - 0.00 in   Overcast
3:03 PM 32.0 °F 28.7 °F 32.0 °F 100% 30.15 in 1.5 mi WNW 3.5 mph - N/A   Overcast
3:04 PM 32.0 °F 28.7 °F 32.0 °F 100% 30.15 in 1.5 mi WNW 3.5 mph - N/A   Overcast
3:08 PM 32.0 °F 28.7 °F 32.0 °F 100% 30.14 in 1.2 mi WNW 3.5 mph - N/A   Overcast
3:13 PM 32.0 °F 27.5 °F 32.0 °F 100% 30.14 in 1.0 mi WNW 4.6 mph - N/A   Unknown
3:31 PM 32.0 °F - 32.0 °F 100% 30.13 in 0.8 mi NNW 2.3 mph - N/A   Mist
3:46 PM 32.0 °F - 32.0 °F 100% 30.12 in 0.8 mi NNE 2.3 mph - N/A   Mist
3:51 PM 32.0 °F - 32.0 °F 100% 30.12 in 0.5 mi NE 2.3 mph - N/A Fog Fog
3:58 PM 32.0 °F 28.7 °F 32.0 °F 100% 30.20 in 0.5 mi NNE 3.5 mph - 0.00 in Fog Fog
4:19 PM 32.0 °F - 32.0 °F 100% 30.19 in 0.2 mi Calm Calm - N/A Fog Fog
4:33 PM 32.0 °F - 32.0 °F 100% 30.18 in 0.5 mi Calm Calm - N/A Fog Fog
4:42 PM 32.0 °F - 32.0 °F 100% 30.19 in 1.0 mi Calm Calm - N/A   Mist
4:43 PM 32.0 °F - - N/A% 30.19 in 1.5 mi East 1.2 mph - N/A   Overcast
4:55 PM 32.4 °F - 32.4 °F 100% 30.19 in 1.5 mi Calm Calm - N/A   Overcast
4:56 PM 32.0 °F - 32.0 °F 100% 30.18 in 2.0 mi NNE 2.3 mph - N/A   Overcast
5:03 PM 32.0 °F - - N/A% 30.19 in 2.5 mi NNE 1.2 mph - N/A   Overcast
5:13 PM 32.0 °F - 32.0 °F 100% 30.19 in 3.0 mi Calm Calm - N/A   Overcast
5:55 PM 32.7 °F 28.3 °F 32.7 °F 100% 30.19 in 2.5 mi North 4.6 mph - N/A   Overcast
6:10 PM 32.0 °F - 32.0 °F 100% 30.18 in 1.0 mi Calm Calm - N/A   Mist
6:27 PM 32.0 °F - 32.0 °F 100% 30.18 in 0.5 mi ENE 2.3 mph - N/A Fog Fog
6:28 PM 32.0 °F - 32.0 °F 100% 30.18 in 0.2 mi Calm Calm - N/A Fog Fog
6:42 PM 32.0 °F 28.7 °F 32.0 °F 100% 30.17 in 0.2 mi NE 3.5 mph - N/A Fog Fog
6:55 PM 32.4 °F 29.1 °F 32.4 °F 100% 30.17 in 0.2 mi North 3.5 mph - N/A Fog Fog
7:55 PM 32.0 °F - 32.0 °F 100% 30.17 in 0.8 mi Calm Calm - N/A   Mist
8:55 PM 32.0 °F - 32.0 °F 100% 30.16 in 0.2 mi SSE 2.3 mph - N/A Fog Fog
9:55 PM 32.0 °F - 32.0 °F 100% 30.13 in 0.5 mi South 2.3 mph - N/A Fog Fog
10:55 PM 32.0 °F - 32.0 °F 100% 30.17 in 0.5 mi West 2.3 mph - N/A Fog Fog
11:31 PM 32.0 °F 26.4 °F 32.0 °F 100% 30.14 in 1.2 mi SSW 5.8 mph - N/A   Overcast
11:55 PM 32.0 °F 28.7 °F 32.0 °F 100% 30.14 in 2.0 mi SSW 3.5 mph - N/A   Overcast